OPS 4682 DEB, 38370

Orbit data source: Space-Track

OPS 4682 DEB, 38370 is space debris in LEO originally from a launch on Sat, 03 Apr 1965 UTC launched from the Air Force Western Test Range (AFWTR). Debris objects in space refer to the collection of defunct objects orbiting the Earth. Examples of debris include non-operational satellites, rocket bodies, and fragments generated from explosions, collisions, or faulty payload assembly.

Loading next visibility...
Identifier
38370, 1965-027BX
Orbit
LEO
Country
Flag of USUS
Related business
Manufacturer
Unknown
Mission
Spacecraft
Bus & Motor
Unknown
Mass
Unknown
Launch date (UTC)
1965-04-03 (61 years ago)
Launch vehicle
Unknown
Launch site
Air Force Western Test Range (AFWTR)
Object type
Payload
Rocket body
Debris
Shape & HBR
Unknown shape, 0.1 m
Radar Cross Section
Medium (>0.1 m² and <1 m²)

Expand to show TLE details & history
Last TLE update: 2 days ago

TLE from 2 days ago
0 OPS 4682 DEB
1 38370U 65027BX  26206.41756396 -.00000201  00000-0 -68491-3 0  9994
2 38370  90.2540  12.8515 0025973 170.3992 189.7633 13.00875059610778
Epoch: 2026-07-25T10:01Z
TLE epoch observation values (Epoch: 2026-07-25T10:01:17.526Z)
Latitude
0.00007°
Longitude
-80.60167°
Altitude
1,281.098 km
Speed
7.206 km/s
True Right ascension
00h 51m 24s
True Declination
0° 00' 00"
Sunlit
Object was in daylight at epoch
Visualization orbit readout
Latitude
Unknown
Longitude
Unknown
Altitude
Unknown
Speed
Unknown
Apparent Right ascension
Unknown
Apparent Declination
Unknown
Sunlit
N/A
Visualization observer readout
Local Sidereal Time
23:14:01
Azimuth
Unknown
Elevation
Unknown
Doppler factor
Unknown
Orbital elements
Apogee altitude
1,275.613 km
Perigee altitude
1,235.958 km
Semi-major axis
7,633.923 km
Eccentricity
0.0026
Inclination
90.254°
RAAN
12.8515°
Arg. of periapsis
170.3992°
True anomaly
189.71299°
Mean anomaly
189.7633°
Eccentric anomaly
189.73813°
Mean motion
3.25403 °/min
Orbital period
110.63 mins
BSTAR
-0.00068491
Loading maneuver chart data...
Computing Atmospheric mass density...
Loading historical data...
Loading historical data...
Loading historical data...
Loading historical data...
Loading historical data...
Loading historical data...
Loading historical data...

Documentation

Showing up to 5 results
|